N5VKM Weather Reports


Display with metric or nautical units.
time (UTC)temp
F
wind
direction
speed
MPH
gust
MPH
rain 1hr
in
rain 24hr
in
rain mn
in
humidity
%
barometer
mb
20260505083030 71 336 0.0 0.0 0.00 0.00 0.00 85 1004.2
20260505082546 71 334 0.0 0.0 0.00 0.00 0.00 85 1004.1
20260505082053 71 336 0.0 0.0 0.00 0.00 0.00 84 1004.1
20260505081546 71 335 0.0 0.0 0.00 0.00 0.00 84 1004.2
20260505081036 71 336 0.0 0.0 0.00 0.00 0.00 84 1004.3
20260505080531 71 336 0.0 0.0 0.00 0.00 0.00 84 1004.3
20260505080041 71 336 0.0 0.0 0.00 0.00 0.00 83 1004.3
20260505075532 71 336 0.0 0.0 0.00 0.00 0.00 83 1004.5
20260505075044 72 339 0.0 0.0 0.00 0.00 0.00 83 1004.4
20260505074537 72 337 0.0 0.0 0.00 0.00 0.00 83 1004.5
20260505074050 72 335 0.0 0.0 0.00 0.00 0.00 82 1004.6
20260505073539 72 335 0.0 0.0 0.00 0.00 0.00 82 1004.7
20260505073029 72 334 0.0 0.0 0.00 0.00 0.00 82 1004.7
20260505072603 72 335 0.0 0.0 0.00 0.00 0.00 81 1004.8
20260505072029 72 334 0.0 0.0 0.00 0.00 0.00 81 1004.9
20260505071541 72 336 0.0 0.0 0.00 0.00 0.00 81 1004.8
20260505071034 72 336 0.0 0.0 0.00 0.00 0.00 81 1004.8
20260505070548 72 335 0.0 0.0 0.00 0.00 0.00 81 1004.9
20260505070047 72 334 0.0 0.0 0.00 0.00 0.00 81 1005.0
20260505065538 72 336 0.0 0.0 0.00 0.00 0.00 80 1005.1
20260505065047 72 335 0.0 0.0 0.00 0.00 0.00 80 1005.2
20260505064554 72 335 0.0 0.0 0.00 0.00 0.00 80 1005.3
20260505064046 72 334 0.0 0.0 0.00 0.00 0.00 80 1005.3
20260505063534 72 336 0.0 0.0 0.00 0.00 0.00 80 1005.3
20260505063048 72 334 0.0 0.0 0.00 0.00 0.00 80 1005.4
20260505062536 72 336 0.0 0.0 0.00 0.00 0.00 79 1005.4
20260505062046 72 335 0.0 0.0 0.00 0.00 0.00 79 1005.4
20260505061533 72 336 0.0 0.0 0.00 0.00 0.00 79 1005.4
20260505061040 72 336 0.0 0.0 0.00 0.00 0.00 79 1005.4
20260505060528 72 334 0.0 0.0 0.00 0.00 0.00 79 1005.4
20260505060039 72 334 0.0 0.0 0.00 0.00 0.00 79 1005.3
20260505055532 72 336 0.0 0.0 0.00 0.00 0.00 79 1005.3
20260505055107 72 336 0.0 0.0 0.00 0.00 0.00 79 1005.3
20260505054559 72 333 0.0 0.0 0.00 0.00 0.00 79 1005.5
20260505054046 72 335 0.0 0.0 0.00 0.00 0.00 79 1005.6
20260505053537 72 335 0.0 0.0 0.00 0.00 0.00 78 1005.6
20260505053044 72 335 0.0 0.0 0.00 0.00 0.00 78 1005.6
20260505052537 72 332 0.0 0.0 0.00 0.00 0.00 78 1005.8
20260505052030 72 333 0.0 0.0 0.00 0.00 0.00 78 1005.9
20260505051536 72 334 0.0 0.0 0.00 0.00 0.00 77 1005.9
20260505051044 72 334 0.0 0.0 0.00 0.00 0.00 77 1006.0
20260505050537 72 334 0.0 0.0 0.00 0.00 0.00 77 1006.0
20260505041550 73 334 0.0 0.0 0.00 0.00 0.00 75 1006.0
20260505041036 73 332 0.0 0.0 0.00 0.00 0.00 75 1006.1
20260505040547 73 334 0.0 0.0 0.00 0.00 0.00 75 1006.1
20260505040039 73 333 0.0 0.0 0.00 0.00 0.00 75 1006.0
20260505035608 73 335 0.0 0.0 0.00 0.00 0.00 75 1006.0
20260505035035 73 335 0.0 0.0 0.00 0.00 0.00 74 1006.0
20260505034540 73 334 0.0 0.0 0.00 0.00 0.00 74 1006.1
20260505034032 74 334 0.0 0.0 0.00 0.00 0.00 74 1006.1
20260505033606 74 334 0.0 0.0 0.00 0.00 0.00 74 1006.2
20260505033033 74 334 0.0 0.0 0.00 0.00 0.00 74 1006.2
20260505032540 74 335 0.0 0.0 0.00 0.00 0.00 74 1006.3
20260505032037 74 333 0.0 0.0 0.00 0.00 0.00 74 1006.2
20260505031607 74 336 0.0 0.0 0.00 0.00 0.00 73 1006.2
20260505031037 74 335 0.0 0.0 0.00 0.00 0.00 73 1006.1
20260505030549 74 336 0.0 0.0 0.00 0.00 0.00 73 1006.1
20260505030037 74 335 0.0 0.0 0.00 0.00 0.00 72 1006.1
20260505025544 74 336 0.0 0.0 0.00 0.00 0.00 72 1006.1
20260505025036 74 334 0.0 0.0 0.00 0.00 0.00 72 1006.0
20260505024606 74 335 0.0 0.0 0.00 0.00 0.00 72 1006.0
20260505024037 75 334 0.0 0.0 0.00 0.00 0.00 72 1006.0
20260505023544 75 334 0.0 0.0 0.00 0.00 0.00 71 1006.0
20260505023037 75 336 0.0 0.0 0.00 0.00 0.00 71 1006.0
20260505022545 75 336 0.0 0.0 0.00 0.00 0.00 71 1006.0
20260505022056 75 334 0.0 0.0 0.00 0.00 0.00 71 1005.9
20260505021543 75 335 0.0 0.0 0.00 0.00 0.00 70 1005.9
20260505021055 75 334 0.0 0.0 0.00 0.00 0.00 70 1005.8
20260505020543 75 336 0.0 0.0 0.00 0.00 0.00 70 1005.9
20260505020031 75 335 0.0 0.0 0.00 0.00 0.00 70 1005.9
20260505015541 75 333 0.0 0.0 0.00 0.00 0.00 70 1005.8
20260505015029 75 336 0.0 0.0 0.00 0.00 0.00 70 1005.8
20260505014543 75 334 0.0 0.0 0.00 0.00 0.00 70 1005.8
20260505014031 75 335 0.0 0.0 0.00 0.00 0.00 69 1005.9
20260505013542 76 336 0.0 0.0 0.00 0.00 0.00 69 1005.9
20260505013030 76 333 0.0 0.0 0.00 0.00 0.00 69 1005.8
20260505012540 76 335 0.0 0.0 0.00 0.00 0.00 68 1005.9
20260505012034 76 335 0.0 0.0 0.00 0.00 0.00 68 1005.9
20260505011541 76 337 0.0 0.0 0.00 0.00 0.00 68 1005.8
20260505011033 76 336 0.0 0.0 0.00 0.00 0.00 68 1005.9
20260505010608 76 336 0.0 0.0 0.00 0.00 0.00 68 1005.9
20260505010050 76 334 0.0 0.0 0.00 0.00 0.00 68 1006.0
20260505005544 77 335 0.0 0.0 0.00 0.00 0.00 67 1005.9
20260505005050 77 334 0.0 0.0 0.00 0.00 0.00 66 1005.9
20260505004553 77 334 0.0 0.0 0.00 0.00 0.00 66 1005.9
20260505004056 77 333 0.0 0.0 0.00 0.00 0.00 65 1005.9
20260505003546 77 333 0.0 0.0 0.00 0.00 0.00 65 1006.0
20260505003040 78 335 0.0 0.0 0.00 0.00 0.00 64 1006.0
20260505002532 78 334 0.0 0.0 0.00 0.00 0.00 64 1006.1
20260505002044 78 336 0.0 0.0 0.00 0.00 0.00 63 1006.1
20260505001537 78 336 0.0 0.0 0.00 0.00 0.00 64 1006.1
20260505001051 78 333 0.0 0.0 0.00 0.00 0.00 63 1006.1
20260505000603 78 333 0.0 0.0 0.00 0.00 0.00 63 1006.1
20260505000056 78 336 0.0 0.0 0.00 0.00 0.00 63 1006.0
20260504235542 78 335 0.0 0.0 0.00 0.00 0.00 63 1005.9
20260504235035 78 333 0.0 0.0 0.00 0.00 0.00 63 1006.0
20260504234530 79 333 0.0 0.0 0.00 0.00 0.00 63 1006.1
20260504234103 79 334 0.0 0.0 0.00 0.00 0.00 63 1006.2
20260504233533 79 336 0.0 0.0 0.00 0.00 0.00 62 1006.3
20260504233040 79 335 0.0 0.0 0.00 0.00 0.00 62 1006.3
20260504232538 79 334 0.0 0.0 0.00 0.00 0.00 62 1006.3
20260504232031 79 334 0.0 0.0 0.00 0.00 0.00 62 1006.3
20260504231540 80 332 0.0 0.0 0.00 0.00 0.00 62 1006.5
20260504231054 80 333 0.0 0.0 0.00 0.00 0.00 61 1006.5
20260504230543 80 333 0.0 0.0 0.00 0.00 0.00 61 1006.5
20260504230032 80 333 0.0 0.0 0.00 0.00 0.00 60 1006.4
20260504225540 80 335 0.0 0.0 0.00 0.00 0.00 60 1006.7
20260504225031 80 334 0.0 0.0 0.00 0.00 0.00 60 1006.9
20260504224538 80 333 0.0 0.0 0.00 0.00 0.00 59 1006.8
20260504224033 81 333 0.0 0.0 0.00 0.00 0.00 59 1006.7
20260504223546 81 333 0.0 0.0 0.00 0.00 0.00 59 1006.6
20260504223038 81 335 0.0 0.0 0.00 0.00 0.00 59 1006.6
20260504222528 81 333 0.0 0.0 0.00 0.00 0.00 59 1006.6
20260504222102 81 333 0.0 0.0 0.00 0.00 0.00 60 1006.7
20260504221531 81 335 0.0 0.0 0.00 0.00 0.00 59 1006.8
20260504221039 81 335 0.0 0.0 0.00 0.00 0.00 59 1006.8
20260504220545 81 335 0.0 0.0 0.00 0.00 0.00 59 1006.9
20260504220037 81 333 0.0 0.0 0.00 0.00 0.00 59 1006.9
20260504215547 81 333 0.0 0.0 0.00 0.00 0.00 59 1006.9
20260504215037 81 335 0.0 0.0 0.00 0.00 0.00 57 1007.0
20260504214551 81 333 0.0 0.0 0.00 0.00 0.00 57 1007.3
20260504214038 81 334 0.0 0.0 0.00 0.00 0.00 56 1007.2
20260504213548 81 333 0.0 0.0 0.00 0.00 0.00 57 1007.2
20260504213036 81 336 0.0 0.0 0.00 0.00 0.00 57 1007.4
20260504212530 81 333 0.0 0.0 0.00 0.00 0.00 57 1007.5
20260504212044 81 334 0.0 0.0 0.00 0.00 0.00 57 1007.5
20260504211537 81 334 0.0 0.0 0.00 0.00 0.00 56 1007.6
20260504211050 81 333 0.0 0.0 0.00 0.00 0.00 56 1007.6
20260504210544 81 333 0.0 0.0 0.00 0.00 0.00 56 1007.8
20260504210037 81 333 0.0 0.0 0.00 0.00 0.00 55 1007.9
20260504205529 82 333 0.0 0.0 0.00 0.00 0.00 54 1008.0
20260504205041 82 334 0.0 0.0 0.00 0.00 0.00 55 1008.1
20260504204528 82 334 0.0 0.0 0.00 0.00 0.00 55 1008.1
20260504204031 81 335 0.0 0.0 0.00 0.00 0.00 55 1008.4
20260504203540 81 333 0.0 0.0 0.00 0.00 0.00 56 1008.4
20260504203054 81 333 0.0 0.0 0.00 0.00 0.00 55 1008.5
20260504202555 81 335 0.0 0.0 0.00 0.00 0.00 55 1008.6
20260504202032 80 335 0.0 0.0 0.00 0.00 0.00 55 1008.7
20260504201541 80 332 0.0 0.0 0.00 0.00 0.00 54 1008.7
20260504201030 81 334 0.0 0.0 0.00 0.00 0.00 55 1008.8
20260504200537 80 334 0.0 0.0 0.00 0.00 0.00 55 1009.1
20260504200048 80 333 0.0 0.0 0.00 0.00 0.00 55 1009.1
20260504195539 80 333 0.0 0.0 0.00 0.00 0.00 54 1009.2
20260504195110 80 333 0.0 0.0 0.00 0.00 0.00 54 1009.4
20260504194538 80 333 0.0 0.0 0.00 0.00 0.00 53 1009.4
20260504194056 81 333 0.0 0.0 0.00 0.00 0.00 53 1009.5
20260504193544 81 336 0.0 0.0 0.00 0.00 0.00 53 1009.5
20260504193032 81 333 0.0 0.0 0.00 0.00 0.00 53 1009.5
20260504192538 81 333 0.0 0.0 0.00 0.00 0.00 53 1009.7
20260504192031 80 334 0.0 0.0 0.00 0.00 0.00 53 1009.6
20260504191549 80 334 0.0 0.0 0.00 0.00 0.00 52 1009.9
20260504191042 80 333 0.0 0.0 0.00 0.00 0.00 52 1010.0
20260504190530 80 335 0.0 0.0 0.00 0.00 0.00 52 1010.2
20260504190044 80 335 0.0 0.0 0.00 0.00 0.00 52 1010.1
20260504185550 80 333 0.0 0.0 0.00 0.00 0.00 52 1010.2
20260504185043 79 334 0.0 0.0 0.00 0.00 0.00 52 1010.2
20260504184541 79 333 0.0 0.0 0.00 0.00 0.00 51 1010.2
20260504184049 78 333 0.0 0.0 0.00 0.00 0.00 52 1010.1
20260504183541 79 334 0.0 0.0 0.00 0.00 0.00 52 1010.3
20260504183048 79 335 0.0 0.0 0.00 0.00 0.00 51 1010.3
20260504182554 79 334 0.0 0.0 0.00 0.00 0.00 52 1010.4
20260504182032 78 333 0.0 0.0 0.00 0.00 0.00 54 1010.5
20260504181542 78 334 0.0 0.0 0.00 0.00 0.00 53 1010.6
20260504181036 78 334 0.0 0.0 0.00 0.00 0.00 53 1010.8
20260504180542 78 336 0.0 0.0 0.00 0.00 0.00 52 1010.8
20260504180042 77 335 0.0 0.0 0.00 0.00 0.00 53 1010.9
20260504175531 77 333 0.0 0.0 0.00 0.00 0.00 53 1010.9
20260504175038 77 333 0.0 0.0 0.00 0.00 0.00 53 1010.9
20260504174546 77 335 0.0 0.0 0.00 0.00 0.00 52 1011.1
20260504174035 77 335 0.0 0.0 0.00 0.00 0.00 52 1011.2
20260504173541 77 335 0.0 0.0 0.00 0.00 0.00 52 1011.2
20260504173031 77 335 0.0 0.0 0.00 0.00 0.00 52 1011.4
20260504172542 76 333 0.0 0.0 0.00 0.00 0.00 53 1011.5
20260504172032 76 334 0.0 0.0 0.00 0.00 0.00 52 1011.5
20260504171541 76 333 0.0 0.0 0.00 0.00 0.00 54 1011.5
20260504171030 76 333 0.0 0.0 0.00 0.00 0.00 52 1011.8
20260504170601 76 334 0.0 0.0 0.00 0.00 0.00 51 1011.9
20260504151042 71 335 0.0 0.0 0.00 0.00 0.00 60 1012.9
20260504150534 71 335 0.0 0.0 0.00 0.00 0.00 60 1013.0
20260504141029 68 335 0.0 0.0 0.00 0.00 0.00 67 1013.1
20260504140601 68 336 0.0 0.0 0.00 0.00 0.00 68 1013.1
20260504130547 65 336 0.0 0.0 0.00 0.00 0.00 70 1013.2
20260504110528 61 336 0.0 0.0 0.00 0.00 0.00 76 1012.9
20260504100542 62 336 0.0 0.0 0.00 0.00 0.00 71 1013.1